Change the Weather History Date:

Friday, July 26, 2013

  Actual Average Record
Temperature  
Mean Temperature 70 °F -  
Max Temperature 75 °F 80 °F 82 °F (1998)
Min Temperature 66 °F 64 °F 50 °F (2002)
Cooling Degree Days 6    
Growing Degree Days 20 (Base 50)    
Moisture  
Dew Point 61 °F    
Average Humidity 71    
Maximum Humidity 94    
Minimum Humidity 51    
Precipitation  
Precipitation 0.16 in 0.03 in - ()
Sea Level Pressure  
Sea Level Pressure 30.08 in    
Wind  
Wind Speed 15 mph ()    
Max Wind Speed 22 mph    
Max Gust Speed 30 mph    
Visibility 6.9 miles    
Events Rain    
Averages and records for this station are not official NWS values.
T = Trace of Precipitation, MM = Missing Value Source: Averaged Metar Reports

Daily Weather History Graph

Daily Weather History Graph

Search for Another Location

Airport or City:

Trip Planner

Search our weather history database for the weather conditions in past years. The results will help you decide how hot, cold, wet, or windy it might be!

Date:

Astronomy

Jul. 26, 2013 Rise Set
Actual Time 6:44 AM AEST 6:02 PM AEST
Civil Twilight 6:21 AM AEST 6:25 PM AEST
Nautical Twilight 5:55 AM AEST 6:51 PM AEST
Astronomical Twilight 5:29 AM AEST 7:18 PM AEST
Moon 9:34 PM AEST (7/26) 9:08 AM AEST (7/26)
Length of Visible Light 12h 04m
Length of Day
11h 18m
Waning Gibbous, 85% of the Moon is Illuminated
Jul 26
Waning Gibbous
Jul 30
Last Quarter
Aug 7
New
Aug 14
First Quarter
Aug 21
Full

Hourly Weather History & Observations

Time (AEST) Temp. Dew Point Humidity Pressure Visibility Wind Dir Wind Speed Gust Speed Precip Events Conditions
12:00 AM 69 °F 59 °F 62% 30.11 in - South 17.3 mph - -   Overcast
12:00 AM 69.8 °F 59.0 °F 68% 30.09 in 6.2 mi South 17.3 mph - N/A   Mostly Cloudy
12:30 AM 68.0 °F 59.0 °F 73% 30.09 in 6.2 mi SSE 15.0 mph - N/A   Mostly Cloudy
1:00 AM 69 °F 60 °F 66% 30.11 in - SSE 16.1 mph - -  
1:00 AM 68.0 °F 60.8 °F 78% 30.09 in 6.2 mi SSE 16.1 mph - N/A   Mostly Cloudy
1:30 AM 68.0 °F 60.8 °F 78% 30.06 in 6.2 mi South 17.3 mph - N/A   Mostly Cloudy
2:00 AM 68.0 °F 60.8 °F 78% 30.06 in 6.2 mi South 12.7 mph - N/A   Mostly Cloudy
2:30 AM 68.0 °F 60.8 °F 78% 30.06 in 6.2 mi South 12.7 mph - N/A   Mostly Cloudy
3:00 AM 69.8 °F 60.8 °F 73% 30.06 in 6.2 mi South 17.3 mph - N/A   Mostly Cloudy
3:30 AM 69.8 °F 60.8 °F 73% 30.06 in 6.2 mi SSE 16.1 mph - N/A   Mostly Cloudy
4:00 AM 69.8 °F 60.8 °F 73% 30.06 in 6.2 mi South 15.0 mph - N/A   Mostly Cloudy
4:30 AM 69.8 °F 60.8 °F 73% 30.06 in 6.2 mi South 11.5 mph - N/A   Mostly Cloudy
5:00 AM 68.0 °F 60.8 °F 78% 30.06 in 6.2 mi SSE 17.3 mph - N/A   Scattered Clouds
5:30 AM 68.0 °F 60.8 °F 78% 30.04 in 6.2 mi South 16.1 mph - N/A   Scattered Clouds
6:00 AM 68 °F 61 °F 72% 30.07 in 16 mi South 17.3 mph - -   Partly Cloudy
6:00 AM 68.0 °F 60.8 °F 78% 30.06 in 6.2 mi South 17.3 mph - N/A   Mostly Cloudy
6:30 AM 69.8 °F 60.8 °F 73% 30.06 in 6.2 mi SSE 18.4 mph - N/A   Mostly Cloudy
7:00 AM 68 °F 60 °F 68% 30.09 in - SSE 17.3 mph - -  
7:00 AM 68.0 °F 60.8 °F 78% 30.06 in 6.2 mi SSE 17.3 mph - N/A   Scattered Clouds
7:30 AM 69.8 °F 60.8 °F 73% 30.06 in 6.2 mi South 17.3 mph - N/A   Scattered Clouds
8:00 AM 69.8 °F 60.8 °F 73% 30.09 in 6.2 mi South 15.0 mph - N/A   Scattered Clouds
8:30 AM 71.6 °F 59.0 °F 64% 30.09 in 6.2 mi South 18.4 mph - N/A   Scattered Clouds
9:00 AM 72 °F 60 °F 57% 30.12 in 19 mi South 19.6 mph - -   Partly Cloudy
9:00 AM 71.6 °F 60.8 °F 69% 30.09 in 6.2 mi South 19.6 mph - N/A   Scattered Clouds
9:30 AM 71.6 °F 59.0 °F 64% 30.09 in 6.2 mi South 17.3 mph - N/A   Mostly Cloudy
10:00 AM 74 °F 61 °F 54% 30.13 in - SSE 15.0 mph - -  
10:00 AM 73.4 °F 60.8 °F 65% 30.12 in 6.2 mi SSE 15.0 mph - N/A   Mostly Cloudy
10:30 AM 75.2 °F 60.8 °F 61% 30.09 in 6.2 mi SSE 15.0 mph - N/A   Mostly Cloudy
11:00 AM 75.2 °F 60.8 °F 61% 30.09 in 6.2 mi SE 20.7 mph - N/A   Scattered Clouds
11:30 AM 75.2 °F 60.8 °F 61% 30.09 in 6.2 mi SSE 19.6 mph - N/A   Scattered Clouds
12:00 PM 75 °F 62 °F 54% 30.10 in 19 mi South 15.0 mph - -   Mostly Cloudy
12:00 PM 75.2 °F 60.8 °F 61% 30.09 in 6.2 mi South 15.0 mph - N/A   Mostly Cloudy
12:30 PM 75.2 °F 60.8 °F 61% 30.09 in 6.2 mi SSE 17.3 mph - N/A   Mostly Cloudy
1:00 PM 74 °F 61 °F 56% 30.10 in - SSE 21.9 mph - -  
1:00 PM 73.4 °F 60.8 °F 65% 30.09 in 6.2 mi SSE 21.9 mph - N/A   Mostly Cloudy
1:30 PM 73.4 °F 62.6 °F 69% 30.06 in 6.2 mi SSE 15.0 mph - N/A   Mostly Cloudy
2:00 PM 75.2 °F 60.8 °F 61% 30.06 in 6.2 mi SSE 13.8 mph - N/A   Mostly Cloudy
2:30 PM 75.2 °F 60.8 °F 61% 30.04 in 6.2 mi SSE 15.0 mph - N/A   Mostly Cloudy
3:00 PM 75 °F 60 °F 51% 30.05 in 12 mi SE 21.9 mph - -   Mostly Cloudy
3:00 PM 75.2 °F 60.8 °F 61% 30.04 in 6.2 mi SE 21.9 mph - N/A   Mostly Cloudy
3:30 PM 75.2 °F 60.8 °F 61% 30.04 in 6.2 mi SE 21.9 mph - N/A   Mostly Cloudy
3:46 PM 75.2 °F 60.8 °F 61% 30.04 in 6.2 mi SSE 18.4 mph 29.9 mph N/A   Mostly Cloudy
4:00 PM 75 °F 61 °F 52% 30.06 in - SSE 21.9 mph - -  
4:00 PM 75.2 °F 60.8 °F 61% 30.04 in 6.2 mi SSE 21.9 mph - N/A   Mostly Cloudy
4:30 PM 73.4 °F 59.0 °F 61% 30.04 in 6.2 mi SE 21.9 mph - N/A   Mostly Cloudy
5:00 PM 73.4 °F 60.8 °F 65% 30.06 in 6.2 mi South 13.8 mph - N/A   Scattered Clouds
5:30 PM 71.6 °F 60.8 °F 69% 30.06 in 6.2 mi South 11.5 mph - N/A   Scattered Clouds
6:00 PM 70 °F 62 °F 70% 30.08 in - South 15.0 mph - -   Overcast
6:00 PM 69.8 °F 62.6 °F 78% 30.06 in 6.2 mi South 15.0 mph - N/A   Mostly Cloudy
6:30 PM 69.8 °F 62.6 °F 78% 30.06 in 6.2 mi South 12.7 mph - N/A   Mostly Cloudy
7:00 PM 69 °F 62 °F 72% 30.09 in - South 13.8 mph - -  
7:00 PM 69.8 °F 62.6 °F 78% 30.06 in 6.2 mi South 13.8 mph - N/A   Mostly Cloudy
7:30 PM 68.0 °F 62.6 °F 83% 30.09 in 6.2 mi South 16.1 mph - N/A   Mostly Cloudy
8:00 PM 68.0 °F 62.6 °F 83% 30.09 in 6.2 mi South 15.0 mph - N/A   Mostly Cloudy
8:30 PM 66.2 °F 64.4 °F 94% 30.12 in 6.2 mi South 15.0 mph - N/A Rain Light Rain Showers
9:00 PM 67 °F 65 °F 90% 30.13 in - South 11.5 mph - -   Overcast
9:00 PM 66.2 °F 64.4 °F 94% 30.12 in 3.1 mi South 11.5 mph - N/A Rain Light Rain Showers
9:30 PM 66.2 °F 64.4 °F 94% 30.12 in 3.1 mi SSE 15.0 mph - N/A Rain Light Rain Showers
10:00 PM 66 °F 64 °F 92% 30.14 in - South 10.4 mph - -  
10:00 PM 66.2 °F 64.4 °F 94% 30.12 in 6.2 mi South 10.4 mph - N/A   Overcast
10:30 PM 66.2 °F 64.4 °F 94% 30.12 in 6.2 mi South 12.7 mph - N/A   Overcast
11:00 PM 66.2 °F 62.6 °F 88% 30.12 in 6.2 mi South 12.7 mph - N/A   Mostly Cloudy
11:30 PM 66.2 °F 60.8 °F 83% 30.09 in 6.2 mi South 11.5 mph - N/A   Mostly Cloudy